sat.trackr.live / text

‹ back to catalog

STARLINK-30444

NORAD 57871 · 2023-144H

PAYLOAD ACTIVE UNKNOWN

§ Identity

Operator
Country
US
Launch date
2023-09-16
Launch site
AFETR
Launch vehicle
Mass (kg)
RCS (m²)

Purposes: comms

External: N2YO · Heavens-Above · Gunter

§ Orbital elements

Epoch: 2026-05-24T21:58:55.565760Z

Period
94.27 min
Inclination
43.0021°
Eccentricity
0.0002211
Mean motion
15.27583411 rev/d
Perigee alt
481.5 km
Apogee alt
484.6 km
Semi-major
6,861.2 km
B*
4.3549e-4
RAAN
214.8566°
Arg perigee
272.8426°
Mean anomaly
87.2172°
Rev number
14,901

§ Raw data

STARLINK-304441 57871U 23144H   26144.91592090  .00011742  00000+0  43549-3 0  99962 57871  43.0021 214.8566 0002211 272.8426  87.2172 15.27583411149018

JSON: /api/v1/satellites/57871 · /tle

For live sub-satellite position, see the globe view (requires WebGL).

§ Visibility from observer

Set your observer location to see the next 7 days of passes ≥ 10°. The values pass through the URL so the page stays shareable.

No JS? Fill the form by hand. The geolocation button needs JavaScript.